Regional Weather Roundup
Issued by NWS

Home | Current Version | Previous Version | Text Only | Print | Product List | Glossary Off
Versions: 1 2 3 4 5 6 7 8 9 10 11 12 13 14 15 16 17 18 19 20 21 22 23 24 25 26 27 28 29 30 31 32 33 34 35 36 37 38 39 40 41 42 43 44 45 46 47 48 49 50

000
ASUS43 KDTX 291610
RWRMI
MICHIGAN HOURLY REGIONAL WEATHER ROUNDUP
NATIONAL WEATHER SERVICE DETROIT/PONTIAC MI
1200 PM EDT WED JUL 29 2015

NOTE: "FAIR" INDICATES FEW OR NO CLOUDS BELOW 12,000 FEET WITH NO
SIGNIFICANT WEATHER AND/OR OBSTRUCTION TO VISIBILITY.

MIZ047>049-052>055-059>063-066>070-074>076-081>083-291700-
SOUTHEAST LOWER MICHIGAN

CITY           SKY/WX    TMP DP  RH WIND       PRES   REMARKS
ADRIAN         PTSUNNY   86  73  65 SW9       29.95F HX  93
ALMA           MOSUNNY   84  74  72 S7        29.90F HX  92
ANN ARBOR      MOSUNNY   85  73  67 S7        29.94F HX  91
BAD AXE        PTSUNNY   83  67  58 SW10      29.92S
CARO           PTSUNNY   85  72  66 SW6       29.91F HX  90
DETROIT CITY   PTSUNNY   86  69  56 S9        29.94F HX  90
DETROIT        CLOUDY    88  71  57 S10       29.95S HX  94
FLINT          PTSUNNY   87  72  60 SW8       29.92F HX  93
GROSSE ILE     MOSUNNY   82  73  74 S8        29.94S
HILLSDALE      PTSUNNY   86  76  70 SW6       29.97S HX  96
HOWELL         PTSUNNY   85  72  63 SW9       29.94F HX  91

CITY           SKY/WX    TMP DP  RH WIND       PRES   REMARKS
JACKSON        PTSUNNY   84  73  69 SW7       29.95S HX  90
LAMBERTVILLE   SUNNY     89  72  57 SW5       29.95S HX  95
LANSING        CLOUDY    82  73  74 SW7       29.93S
LAPEER         FAIR      88  70  55 SW9       29.93F HX  93
MASON          CLOUDY    81  71  73 SW7       29.94S
MONROE         SUNNY     87  73  64 CALM      29.94S HX  94
MT. CLEMENS    PTSUNNY   85  72  65 S10       29.92F HX  90
PONTIAC        CLOUDY    85  70  60 SW9       29.94F
PORT HOPE        N/A     86  67  52 VRB7      29.90S
PORT HURON     MOSUNNY   84  70  61 S8        29.94F
TRI CITIES     MOSUNNY   85  72  65 SW9       29.90F HX  91
MIDLAND        FAIR      84  69  61 S5        29.88F
TROY           MOSUNNY   87  69  54 SW9       29.96S HX  91
SAGINAW HB     MOSUNNY   84  72  65 S9        29.89F
$$
MIZ043>046-050>051-056>058-064>065-071>073-077>080-291700-
SOUTHWEST LOWER MICHIGAN

CITY           SKY/WX    TMP DP  RH WIND       PRES   REMARKS
BATTLE CREEK   PTSUNNY   83  73  72 W8        29.95S
BENTON HARBOR  CLOUDY    78  72  81 W9        29.97R
BIG RAPIDS     CLOUDY    79  72  77 W10       29.91R
COLDWATER      MOSUNNY   84  72  65 W6        29.95F
FREMONT        CLOUDY    77  71  82 NW9       29.93R
HOLLAND        CLOUDY    78  72  81 W9G17     29.96R
GRAND RAPIDS   CLOUDY    83  73  72 W13       29.93R
IONIA          PTSUNNY   84  72  66 SW9       29.90F HX  90
KALAMAZOO      PTSUNNY   85  72  65 W7        29.95R HX  91
LUDINGTON      CLOUDY    78  64  60 NW5       29.92R
MARSHALL       PTSUNNY   85  74  68 SW5       29.94S HX  92
MOUNT PLEASANT MOSUNNY   89  70  53 S6        29.88F HX  95
MUSKEGON       CLOUDY    78  70  76 NW8       29.94R
SOUTH HAVEN    PTSUNNY   77  71  82 W9        29.96R
$$
MIZ016>042-291700-
NORTHERN LOWER MICHIGAN

CITY           SKY/WX    TMP DP  RH WIND       PRES   REMARKS
ALPENA         PTSUNNY   86  67  52 S10       29.85F
BEAVER ISLAND  CLOUDY    76  62  62 SW12G21   29.82S
BELLAIRE       CLOUDY    78  66  66 SW3       29.86F
CADILLAC       CLOUDY    75  70  83 W14       29.92R
CHARLEVOIX     CLOUDY    77  61  58 SW10G18   29.87S
FRANKFORT      CLOUDY    77  65  68 SW7       29.89R
GAYLORD        CLOUDY    83  70  64 SW16      29.88S
GRAYLING       CLOUDY    80  71  75 W7        29.89S
HARBOR SPRINGS CLOUDY    76  70  81 SW8       29.83F
HOUGHTON LAKE  PTSUNNY   83  71  67 W7        29.89F
MANISTEE       CLOUDY    75  61  60 W13       29.90S
OSCODA         PTSUNNY   85  67  54 SE10      29.87F
PELLSTON       CLOUDY    77  69  76 W13G20    29.83F
ROGERS CITY    MOSUNNY   86  71  59 SW10      29.84F HX  92
TRAVERSE CITY  CLOUDY    80  61  52 W9        29.86S
$$
MIZ007>008-015-291700-
EASTERN UPPER MICHIGAN

CITY           SKY/WX    TMP DP  RH WIND       PRES   REMARKS
KINROSS        CLOUDY    79  72  78 S8        29.80S
MACKINAC ISLAN CLOUDY    76  69  80 SW12G18   29.81F
MUNISING         N/A     83  52  34 S15G24    29.73F
$$
MIZ004>006-011>014-085-291700-
CENTRAL UPPER MICHIGAN

CITY           SKY/WX    TMP DP  RH WIND       PRES   REMARKS
MANISTIQUE     MOSUNNY   81  55  41 SW12G17   29.78S
ESCANABA       MOSUNNY   81  48  32 W14G23    29.77F
MENOMINEE      MOSUNNY   79  52  38 W12G20    29.82F
SAWYER-GWINN   SUNNY     79  48  34 SW23G32   29.76F
$$
MIZ001>003-009>011-084-291700-
WESTERN UPPER MICHIGAN

CITY           SKY/WX    TMP DP  RH WIND       PRES   REMARKS
IRON MOUNTAIN  SUNNY     79  50  36 W14G28    29.79F
HOUGHTON       CLOUDY    69  50  50 W23G33    29.73R
IRONWOOD       CLOUDY    70  54  56 W24G35    29.75S
$$

ABBREVIATIONS USED IN REMARKS
   TC - TEMPERATURE IN CELSIUS
  WCI - WIND CHILL INDEX
   HX - HEAT INDEX
  VSB - VISIBILITY




USA.gov is the U.S. government's official web portal to all federal, state and local government web resources and services.